GSAT-15 (GAGAN/PRN 139)

Last updated on Thu Jul 03 2025 00:03:25 GMT+0000 (Coordinated Universal Time)

1 41028U 15065A 25183.57266933 -.00000250 00000+0 00000+0 0 9998 2 41028 0.0456 242.0596 0003816 198.7386 139.6931 1.00271226 35292
UTC large
Height (km)
Speed (km/s)
/
Latitude / Longitude
Inclination (degrees)
Orbital Period (minutes)
Azimuth
Elevation
Range (km)
Doppler Factor

Next 0 passes for location: London (51.5072 / 0.1276)

Sorry there are no passes over London.